User: anonymous   Login
Location: Drocourt
(49.0571°N, 1.7669°E)
Time: 21:59:46
(UTC+00:00)
Language:

DPAF - Orbit

View from above orbital plane
View from above orbital plane
View from above satellite
View from above satellite

Ground track
Ground track

The orbit data is extracted from the following two-line orbital elements,

1 25161U 98007E   24057.23645737  .00000714  00000-0  34354-3 0  9998
2 25161 107.9951 160.7352 0057290  65.2752 351.8265 14.26582452353553
Epoch (UTC): 26 February 2024 05:40:29
Eccentricity: 0.0057290
inclination: 107.9951°
perigee height: 762 km
apogee height: 844 km
right ascension of ascending node: 160.7352°
argument of perigee: 65.2752°
revolutions per day: 14.26582452
mean anomaly at epoch: 351.8265°
orbit number at epoch: 35355

The dashed part of the orbit path shows where the satellite is in the earth's shadow,  

DLR